Location: Artiguedieu
(43.5000°N, 0.5454°E)
Time: 11:43:38
(UTC+00:00)

deb Kosmos-1763 - Pass Details

Date: 06 December 2020
Orbit: 455 x 469 km, 74.0° (Epoch: 27 January)

Event Time Altitude Azimuth Distance (km) Brightness Sun altitude
Exits shadow 06:18:44 - 336° (NNW) 1,894 6.6 -10.2°
Reaches altitude 10° 06:19:21 10° 336° (NNW) 1,636 6.3 -10.1°
Maximum altitude 06:22:57 72° 251° (WSW) 500 3.9 -9.5°
Drops below altitude 10° 06:26:32 10° 168° (SSE) 1,633 7.2 -8.9°
Sets 06:28:38 0° 166° (SSE) 2,508 8.3 -8.5°
